Volver al catálogo

SL-16 R/B

ActivoLEO
NORAD 22220·ROCKET BODY·🇷🇺 Russia

Lanzado Nov 17, 1992 desde Baikonur Cosmodrome

Loading…

Próximos Pases (próximas 24 horas)

TLE

ActualizadoSource: Space-Track

Época: Sep 14, 2026, 10:19 UTC

1 22220U 92076B   26257.43000959  .00000159  00000-0  10315-3 0  9992
2 22220  71.0001 150.7890 0012505 177.1891 356.0778 14.16880143748568

Sigue SL-16 R/B en tiempo real con AllMySat

Download on the App Store